TimeCDT,TemperatureF,Dew PointF,Humidity,Sea Level PressureIn,VisibilityMPH,Wind Direction,Wind SpeedMPH,Gust SpeedMPH,PrecipitationIn,Events,Conditions,WindDirDegrees,DateUTC
12:53 AM,66.9,63.0,87,29.89,10.0,South,9.2,-,N/A,,Clear,180,2013-10-12 05:53:00
1:53 AM,64.9,62.1,90,29.90,10.0,South,6.9,-,N/A,,Clear,170,2013-10-12 06:53:00
2:53 AM,66.0,63.0,90,29.89,10.0,South,5.8,-,N/A,,Scattered Clouds,180,2013-10-12 07:53:00
3:53 AM,64.9,63.0,93,29.88,10.0,South,9.2,-,N/A,,Clear,180,2013-10-12 08:53:00
4:53 AM,66.0,62.1,87,29.90,10.0,South,8.1,-,N/A,,Mostly Cloudy,180,2013-10-12 09:53:00
5:53 AM,64.9,63.0,93,29.94,10.0,North,8.1,-,N/A,,Mostly Cloudy,10,2013-10-12 10:53:00
6:06 AM,66.2,62.6,88,29.98,10.0,Variable,6.9,-,N/A,Thunderstorm,Overcast,0,2013-10-12 11:06:00
6:37 AM,64.4,60.8,88,30.02,10.0,NNW,19.6,-,0.00,Rain-Thunderstorm,Light Thunderstorms and Rain,340,2013-10-12 11:37:00
6:44 AM,62.6,60.8,94,30.05,3.0,West,16.1,24.2,0.09,Rain-Thunderstorm,Thunderstorms and Rain,280,2013-10-12 11:44:00
6:46 AM,62.6,60.8,94,30.04,1.5,WNW,15.0,-,0.23,Rain-Thunderstorm,Heavy Thunderstorms and Rain,290,2013-10-12 11:46:00
6:50 AM,60.8,60.8,100,30.02,0.8,NNW,12.7,-,0.40,Rain-Thunderstorm,Heavy Thunderstorms and Rain,330,2013-10-12 11:50:00
6:53 AM,60.1,60.1,100,29.99,0.8,NNW,10.4,-,0.49,Rain-Thunderstorm,Heavy Thunderstorms and Rain,340,2013-10-12 11:53:00
7:01 AM,60.8,60.8,100,30.02,2.0,NE,3.5,-,0.05,Rain-Thunderstorm,Heavy Thunderstorms and Rain,50,2013-10-12 12:01:00
7:07 AM,60.8,60.8,100,30.02,6.0,East,6.9,-,0.05,Rain-Thunderstorm,Light Thunderstorms and Rain,90,2013-10-12 12:07:00
7:28 AM,60.8,60.8,100,30.01,10.0,NNE,3.5,-,0.05,,Overcast,30,2013-10-12 12:28:00
7:53 AM,61.0,61.0,100,30.00,10.0,SSE,3.5,-,0.05,,Mostly Cloudy,160,2013-10-12 12:53:00
8:53 AM,63.0,63.0,100,30.01,10.0,South,6.9,-,N/A,,Scattered Clouds,170,2013-10-12 13:53:00
9:53 AM,66.0,66.0,100,30.03,10.0,Calm,Calm,-,N/A,,Mostly Cloudy,0,2013-10-12 14:53:00
10:53 AM,68.0,63.0,84,30.05,10.0,NNE,3.5,-,N/A,,Overcast,30,2013-10-12 15:53:00
11:19 AM,68.0,62.6,83,30.08,10.0,Calm,Calm,-,N/A,,Overcast,0,2013-10-12 16:19:00
11:53 AM,69.1,64.0,84,30.06,10.0,North,6.9,-,N/A,,Overcast,360,2013-10-12 16:53:00
12:00 PM,68.0,64.4,88,30.09,10.0,North,8.1,-,N/A,,Overcast,350,2013-10-12 17:00:00
12:09 PM,66.2,62.6,88,30.09,10.0,North,10.4,-,N/A,,Overcast,360,2013-10-12 17:09:00
12:53 PM,66.9,63.0,87,30.07,10.0,North,9.2,-,N/A,,Overcast,350,2013-10-12 17:53:00
1:05 PM,66.2,62.6,88,30.10,10.0,North,12.7,-,N/A,,Overcast,360,2013-10-12 18:05:00
1:53 PM,64.9,62.1,90,30.07,10.0,NNE,11.5,-,N/A,,Overcast,20,2013-10-12 18:53:00
2:53 PM,64.9,61.0,87,30.06,10.0,NNE,12.7,-,N/A,,Overcast,30,2013-10-12 19:53:00
3:34 PM,66.2,60.8,83,30.09,10.0,NNE,13.8,-,N/A,,Overcast,30,2013-10-12 20:34:00
3:53 PM,66.0,62.1,87,30.06,10.0,North,15.0,-,N/A,,Overcast,10,2013-10-12 20:53:00
4:53 PM,68.0,61.0,78,30.06,10.0,NE,9.2,-,N/A,,Mostly Cloudy,40,2013-10-12 21:53:00
5:08 PM,66.2,60.8,83,30.09,10.0,NE,12.7,-,N/A,,Scattered Clouds,40,2013-10-12 22:08:00
5:39 PM,66.2,60.8,83,30.09,10.0,NE,10.4,-,N/A,,Mostly Cloudy,50,2013-10-12 22:39:00
5:48 PM,66.2,60.8,83,30.09,10.0,NE,8.1,-,N/A,,Scattered Clouds,40,2013-10-12 22:48:00
5:53 PM,66.0,60.1,81,30.07,10.0,NE,9.2,-,N/A,,Partly Cloudy,40,2013-10-12 22:53:00
6:53 PM,64.0,59.0,84,30.11,10.0,East,4.6,-,N/A,,Mostly Cloudy,80,2013-10-12 23:53:00
7:53 PM,62.1,59.0,90,30.12,10.0,ENE,4.6,-,N/A,,Mostly Cloudy,60,2013-10-13 00:53:00
8:53 PM,63.0,59.0,87,30.14,10.0,NE,3.5,-,N/A,,Overcast,50,2013-10-13 01:53:00
9:53 PM,62.1,59.0,90,30.14,10.0,NE,4.6,-,N/A,,Mostly Cloudy,40,2013-10-13 02:53:00
10:53 PM,62.1,55.9,80,30.15,10.0,ENE,5.8,-,N/A,,Overcast,60,2013-10-13 03:53:00
11:53 PM,61.0,54.0,78,30.16,10.0,NE,5.8,-,N/A,,Overcast,50,2013-10-13 04:53:00